Regional Weather Roundup
Issued by NWS

Home | Current Version | Previous Version | Text Only | Print | Product List | Glossary On
Versions: 1 2 3 4 5 6 7 8 9 10 11 12 13 14 15 16 17 18 19 20 21 22 23 24 25 26 27 28 29 30 31 32 33 34 35 36 37 38 39 40 41 42 43 44 45 46 47 48 49 50
000
ASUS46 KLOX 050113
RWRCA

SOUTHERN CALIFORNIA WEATHER ROUNDUP
NATIONAL WEATHER SERVICE OXNARD CALIFORNIA
600 PM PDT WED MAY 04 2016

NOTE: "FAIR" INDICATES FEW OR NO CLOUDS BELOW 12,000 FEET WITH NO
SIGNIFICANT WEATHER AND/OR OBSTRUCTIONS TO VISIBILITY.

  -  STATIONS PRECEEDED BY AN ASTERISK (*) ARE NOT NWS OR FAA
     STATIONS AND ARE NOT SUBJECT TO NWS AND FAA QUALITY CONTROL.

CAZ041-042-087-050200-
LA AND ORANGE COUNTY COASTAL AREAS


CITY           SKY/WX    TMP DP  RH WIND       PRES   REMARKS
L.A. DOWNTOWN  SUNNY     64  52  64 VRB3      29.89R
L.A. AIRPORT   MOSUNNY   61  52  72 W13       29.91R
LONG BEACH     SUNNY     67  52  58 S8        29.90R

CITY           SKY/WX    TMP DP  RH WIND       PRES   REMARKS
AVALON           N/A    N/A N/A N/A MISG        N/A
FULLERTON      SUNNY     67  52  58 S9        29.89R
*GETTY CENTER    N/A     57  52  82 SW12        N/A
HAWTHORNE      SUNNY     63  51  65 W13       29.91R
*LEO CARRILLO    N/A     62  53  72 SW7         N/A
*LOS ALAMITOS  FAIR      65  53  64 S9        29.91R
*REDONDO BEACH   N/A     63  53  68 CALM      29.90S
SANTA ANA      MOSUNNY   63  52  67 SW9       29.91R
STA MONICA APT MOSUNNY   61  52  72 SW10      29.91R
*STA MON PIER    N/A     59  54  84 W12       29.84S
TORRANCE       MOSUNNY   64  54  68 SW9       29.91S
*UCLA            N/A     59  52  77 S2        29.87S

$$

CAZ547-548-048-050200-
LA COUNTY VALLEYS AND INLAND EMPIRE


CITY           SKY/WX    TMP DP  RH WIND       PRES   REMARKS
BURBANK        SUNNY     66  51  58 S12       29.87S
VAN NUYS       SUNNY     70  51  51 SE15      29.86S

CITY           SKY/WX    TMP DP  RH WIND       PRES   REMARKS
CORONA AIRPORT CLEAR     66  54  65 W15G26    29.87R
*CHATSWORTH      N/A     72  54  52 N1        29.86S
CHINO          MOSUNNY   67  53  61 SW23      29.89R
MARCH AFB      SUNNY     69  53  57 NW15      29.88R
*NORTHRIDGE      N/A     70  48  46 E5G10       N/A
ONTARIO        MOSUNNY   69  52  54 W17G25    29.87R
*PASADENA        N/A     70  55  60 CALM        N/A
POMONA         SUNNY     68  52  56 W12       29.91S
RIVERSIDE      MOSUNNY   67  52  58 W15G24    29.87R
SAN BERNARDINO SUNNY     73  52  46 W14       29.87R
*SAN RAFAEL HI   N/A     70  53  54 E7          N/A
*SAUGUS          N/A     74  47  38 SE13        N/A
*WHITEMAN AP   PTSUNNY   68  50  52 SE7G18    29.90F
*WHITTIER HILL   N/A     69  54  58 SW7         N/A
*WOODLAND HILL   N/A     72  50  46 S8          N/A

$$

CAZ054-055-050200-
LA AND SAN BERNARDINO COUNTY MOUNTAINS


CITY           SKY/WX    TMP DP  RH WIND       PRES   REMARKS
*BIG BEAR AIRP CLEAR     57  39  51 S3        30.04S
*CHILAO          N/A     57  35  43 S21G35      N/A
SANDBERG       MOSUNNY   62  37  39 S16       29.95F
*WARM SPRINGS    N/A     66  49  54 CALM        N/A

$$

CAZ028-029-059-060-099-050200-
ANTELOPE VALLEY AND SURROUNDING AREAS


CITY           SKY/WX    TMP DP  RH WIND       PRES   REMARKS
LANCASTER      MOSUNNY   72  42  34 SW18G26   29.85R
PALMDALE       MOSUNNY   73  42  32 W22       29.85R
*POPPY PARK      N/A     72  43  34 S8G26       N/A

CITY           SKY/WX    TMP DP  RH WIND       PRES   REMARKS
29 PALMS       PTSUNNY   86  27  11 SW14      29.82F
BARSTOW/DAGGET MOSUNNY   88  39  17 SW17G24   29.74S
BISHOP         PTSUNNY   77  23  13 S15G28    29.82R
CHINA LAKE     PTSUNNY   84  30  14 S17G23    29.77S
EDWARDS AFB    MOSUNNY   77  41  27 W26G32    29.79R
MOJAVE         SUNNY     75  36  23 W21G29    29.86S
NEEDLES        PTSUNNY   97  26   8 SW14      29.69F HX  91
VICTORVILLE    SUNNY     75  43  31 S23       29.86S

$$

CAZ039-040-050200-
VENTURA AND SANTA BARBARA COUNTY COAST


CITY           SKY/WX    TMP DP  RH WIND       PRES   REMARKS
CAMARILLO      MOSUNNY   64  51  62 SW9       29.88F
NWS OXNARD       N/A     64  51  63 SW6       29.88S
OXNARD AIRPORT MOSUNNY   62  52  69 SW8       29.89F
*POINT MUGU    MOSUNNY   62  53  72 SW9       29.90F
SBA APT/GOLETA PTSUNNY   60  53  77 W9        29.89F
*SANTA BARBARA   N/A     64  51  60 CALM      29.96F
*VENTURA         N/A     62  54  74 SW6       29.87S

$$

CAZ044-045-050200-
VENTURA COUNTY VALLEYS


CITY           SKY/WX    TMP DP  RH WIND       PRES   REMARKS
*SIMI VALLEY     N/A     65  54  68 SW2       29.84S
*WESTLAKE VILL   N/A     64  53  67 CALM      29.86F
*OJAI            N/A     65  53  66 W2        29.82S
*FILLMORE        N/A     66  55  66 CALM      29.77S

$$

CAZ053-050200-
VENTURA COUNTY MOUNTAINS


CITY           SKY/WX    TMP DP  RH WIND       PRES   REMARKS
*LOCKWOOD VLY    N/A     59  32  36 MISG        N/A
*ROSE VALLEY     N/A     66  45  45 MISG        N/A

$$

CAZ034-035-036-050200-
CENTRAL COAST AND SANTA YNEZ VALLEY


CITY           SKY/WX    TMP DP  RH WIND       PRES   REMARKS
SAN LUIS OBISP PTSUNNY   61  51  70 S8        29.90S
SANTA MARIA      N/A     63  50  63 SW9       29.89F

CITY           SKY/WX    TMP DP  RH WIND       PRES   REMARKS
*CAL POLY SLO    N/A     59  52  77 S5G12       N/A
*LOMPOC        SUNNY     64  48  56 NW13      29.89S
*PISMO BEACH     N/A     58  54  86 SW3       29.91F
*SANTA YNEZ    FAIR      64  46  52 SW9       29.88S

$$

CAZ037-038-051-050200-
SAN LUIS OBISPO COUNTY INTERIOR AND CUYAMA VALLEY


CITY           SKY/WX    TMP DP  RH WIND       PRES   REMARKS
*CUYAMA          N/A     67  48  49 W20       29.75S
PASO ROBLES    PTSUNNY   60  48  64 SW12      29.89R

$$

CAZ032-033-061-050200-
SOUTHERN DESERTS


CITY           SKY/WX    TMP DP  RH WIND       PRES   REMARKS
BLYTHE         SUNNY     97  35  11 S16       29.69F HX  92
IMPERIAL       MOSUNNY   95  33  11 SE18      29.66F HX  90
PALM SPRINGS   MOSUNNY   90  41  18 NW23G32   29.70F
THERMAL        PTSUNNY   96  33  11 SE14      29.64F HX  91

$$

ELSEWHERE ACROSS THE WESTERN UNITED STATES AND MEXICO


CITY           SKY/WX    TMP DP  RH WIND       PRES   REMARKS
DEATH VALLEY,    N/A     99  31   9 S5          N/A  HX  93
DENVER, CO     PTCLDY    68  35  29 E9        30.13F
GRAND CANYON,  MOSUNNY   71  22  15 S12       30.12F
HONOLULU, HI   PTSUNNY   81  72  74 NE7       30.04
KAHULUI, MAUI  PTSUNNY   79  63  57 E20G30    30.02F
LAKE TAHOE, CA CLOUDY    59  31  34 S13G21    29.95S
LAS VEGAS, NV  PTSUNNY   90  20   7 SE14G21   29.74F
MAMMOTH LAKES, PTSUNNY   57  29  35 SE18G25   30.01F
MEXICO CITY, M CLOUDY    75  48  38 NE16      30.23R
PHOENIX, AZ    MOSUNNY   99  22   6 CALM      29.70F HX  92
PORTLAND, OR   CLOUDY    61  50  67 NW10      29.96S
RENO, NV       CLOUDY    66  39  37 N3        29.88R
SALT LAKE CITY PTSUNNY   80  29  15 S8        29.94F
SAN DIEGO, CA  PTSUNNY   63  51  65 W10       29.96R
SAN FRANCISCO, PTSUNNY   61  53  75 SW14      29.86R
SAN JOSE, CA   CLOUDY    68  53  58 NW13      29.83S
SEATTLE, WA    PTSUNNY   58  44  60 N9        30.00F
TIJUANA, MEX   PTSUNNY   63  48  59 W13       29.96S

$$

STATION/POSITION TIME  TEMP    WIND        PRES    VSBY  WAVE
                       AIR SEA DIR/SP/G                  HT/PER
                 (UTC) (F)     (DEG/KT/KT) (MB)    (MI)  (FT/S)
POINT ARGUELLO B NOT AVBL
WEST SANTA BARBA 0050   58 58  240/  6/  8 1012.0F         4/11
POINT CONCEPTION NOT AVBL
EAST SANTA BARBA 0000   59 59  240/  6/  8 1012.9F
SANTA MONICA BAY 0050   59 61  250/ 10/ 10 1012.6F         3/12



USA.gov is the U.S. government's official web portal to all federal, state and local government web resources and services.